Location: Veytaux
(46.4185°N, 6.9320°E)
Time: 21:47:23
(UTC+00:00)

SME Rocket - Pass Details

Date: 27 May 2022
Orbit: 551 x 2650 km, 99.9° (Epoch: 03 July)

Event Time Altitude Azimuth Distance (km) Brightness Sun altitude
Exits shadow 01:03:26 42° 184° (S) 899 3.4 -19.0°
Maximum altitude 01:04:45 72° 256° (WSW) 699 3.1 -19.0°
Drops below altitude 10° 01:09:53 10° 341° (NNW) 2,479 6.8 -18.6°
Sets 01:12:43 0° 344° (NNW) 3,686 7.8 -18.4°
